| time (UTC) | temp F | wind direction | speed MPH | gust MPH | rain 1hr in | rain 24hr in | rain mn in | humidity % | barometer mb |
| 20260905135016 | 77 | 0.0 | 0.0 | 0.00 | 0.00 | 0.00 | 44 | 1028.5 | |
| 20260905134016 | 77 | 0.0 | 0.0 | 0.00 | 0.00 | 0.00 | 43 | 1028.6 | |
| 20260905133016 | 78 | 0.0 | 0.0 | 0.00 | 0.00 | 0.00 | 46 | 1028.6 | |
| 20260905132016 | 77 | 0.0 | 0.0 | 0.00 | 0.00 | 0.00 | 45 | 1028.5 | |
| 20260905131016 | 77 | 0.0 | 0.0 | 0.00 | 0.00 | 0.00 | 45 | 1028.5 | |
| 20260905130016 | 77 | 0.0 | 0.0 | 0.00 | 0.00 | 0.00 | 47 | 1028.6 | |
| 20260905125016 | 76 | 0.0 | 0.0 | 0.00 | 0.00 | 0.00 | 47 | 1028.5 | |
| 20260905124016 | 76 | 0.0 | 0.0 | 0.00 | 0.00 | 0.00 | 49 | 1028.5 | |
| 20260905123017 | 75 | 0.0 | 0.0 | 0.00 | 0.00 | 0.00 | 51 | 1028.4 | |
| 20260905122036 | 76 | 0.0 | 0.0 | 0.00 | 0.00 | 0.00 | 48 | 1028.4 | |
| 20260905121016 | 75 | 0.0 | 0.0 | 0.00 | 0.00 | 0.00 | 50 | 1028.4 | |
| 20260905120016 | 75 | 0.0 | 0.0 | 0.00 | 0.00 | 0.00 | 51 | 1028.4 | |
| 20260905115036 | 74 | 0.0 | 0.0 | 0.00 | 0.00 | 0.00 | 52 | 1028.3 | |
| 20260905114016 | 73 | 0.0 | 0.0 | 0.00 | 0.00 | 0.00 | 55 | 1028.4 | |
| 20260905113016 | 72 | 0.0 | 0.0 | 0.00 | 0.00 | 0.00 | 57 | 1028.5 | |
| 20260905112037 | 72 | 0.0 | 0.0 | 0.00 | 0.00 | 0.00 | 52 | 1028.5 | |
| 20260905111016 | 74 | 0.0 | 0.0 | 0.00 | 0.00 | 0.00 | 52 | 1028.5 | |
| 20260905110036 | 73 | 0.0 | 0.0 | 0.00 | 0.00 | 0.00 | 55 | 1028.5 | |
| 20260905105016 | 72 | 0.0 | 0.0 | 0.00 | 0.00 | 0.00 | 56 | 1028.5 | |
| 20260905104037 | 71 | 0.0 | 0.0 | 0.00 | 0.00 | 0.00 | 57 | 1028.4 | |
| 20260905103016 | 70 | 0.0 | 0.0 | 0.00 | 0.00 | 0.00 | 61 | 1028.4 | |
| 20260905102037 | 70 | 0.0 | 0.0 | 0.00 | 0.00 | 0.00 | 59 | 1028.5 | |
| 20260905101017 | 70 | 0.0 | 0.0 | 0.00 | 0.00 | 0.00 | 59 | 1028.4 | |
| 20260905100016 | 69 | 0.0 | 0.0 | 0.00 | 0.00 | 0.00 | 65 | 1028.3 | |
| 20260905095036 | 68 | 0.0 | 0.0 | 0.00 | 0.00 | 0.00 | 66 | 1028.2 | |
| 20260905094016 | 67 | 0.0 | 0.0 | 0.00 | 0.00 | 0.00 | 68 | 1028.2 | |
| 20260905093017 | 66 | 0.0 | 0.0 | 0.00 | 0.00 | 0.00 | 72 | 1028.2 | |
| 20260905092037 | 64 | 0.0 | 0.0 | 0.00 | 0.00 | 0.00 | 77 | 1028.2 | |
| 20260905091016 | 62 | 0.0 | 0.0 | 0.00 | 0.00 | 0.00 | 79 | 1028.1 | |
| 20260905090016 | 61 | 0.0 | 0.0 | 0.00 | 0.00 | 0.00 | 85 | 1028.1 | |
| 20260905085037 | 60 | 0.0 | 0.0 | 0.00 | 0.00 | 0.00 | 88 | 1028.0 | |
| 20260905084016 | 59 | 0.0 | 0.0 | 0.00 | 0.00 | 0.00 | 92 | 1027.9 | |
| 20260905083016 | 58 | 0.0 | 0.0 | 0.00 | 0.00 | 0.00 | 93 | 1028.0 | |
| 20260905082016 | 57 | 0.0 | 0.0 | 0.00 | 0.02 | 0.00 | 94 | 1027.8 | |
| 20260905081016 | 57 | 0.0 | 0.0 | 0.00 | 0.02 | 0.00 | 95 | 1027.7 | |
| 20260905080016 | 56 | 0.0 | 0.0 | 0.00 | 0.02 | 0.00 | 95 | 1027.5 | |
| 20260905075057 | 56 | 0.0 | 0.0 | 0.00 | 0.02 | 0.00 | 96 | 1027.6 | |
| 20260905074017 | 55 | 0.0 | 0.0 | 0.00 | 0.02 | 0.00 | 96 | 1027.5 | |
| 20260905073016 | 55 | 0.0 | 0.0 | 0.00 | 0.02 | 0.00 | 96 | 1027.5 | |
| 20260905072016 | 54 | 0.0 | 0.0 | 0.00 | 0.02 | 0.00 | 96 | 1027.5 | |
| 20260905071016 | 53 | 0.0 | 0.0 | 0.00 | 0.02 | 0.00 | 96 | 1027.5 | |
| 20260905070017 | 53 | 0.0 | 0.0 | 0.00 | 0.02 | 0.00 | 97 | 1027.4 | |
| 20260905065016 | 52 | 0.0 | 0.0 | 0.00 | 0.02 | 0.00 | 96 | 1027.1 | |
| 20260905064037 | 51 | 0.0 | 0.0 | 0.00 | 0.02 | 0.00 | 96 | 1027.1 | |
| 20260905063016 | 50 | 0.0 | 0.0 | 0.00 | 0.02 | 0.00 | 96 | 1027.0 | |
| 20260905062056 | 49 | 0.0 | 0.0 | 0.00 | 0.02 | 0.00 | 95 | 1026.9 | |
| 20260905061016 | 48 | 0.0 | 0.0 | 0.00 | 0.02 | 0.00 | 95 | 1026.8 | |
| 20260905060016 | 48 | 0.0 | 0.0 | 0.00 | 0.02 | 0.00 | 95 | 1026.7 | |
| 20260905055016 | 47 | 0.0 | 0.0 | 0.00 | 0.02 | 0.00 | 94 | 1026.6 | |
| 20260905054016 | 47 | 0.0 | 0.0 | 0.00 | 0.02 | 0.00 | 93 | 1026.4 | |
| 20260905053016 | 47 | 0.0 | 0.0 | 0.00 | 0.02 | 0.00 | 93 | 1026.4 | |
| 20260905052016 | 47 | 0.0 | 0.0 | 0.00 | 0.02 | 0.00 | 93 | 1026.2 | |
| 20260905051017 | 47 | 0.0 | 0.0 | 0.00 | 0.02 | 0.00 | 93 | 1026.1 | |
| 20260905050016 | 48 | 0.0 | 0.0 | 0.00 | 0.02 | 0.00 | 93 | 1026.0 | |
| 20260905045016 | 48 | 0.0 | 0.0 | 0.00 | 0.02 | 0.00 | 93 | 1025.9 | |
| 20260905044016 | 48 | 0.0 | 0.0 | 0.00 | 0.02 | 0.00 | 93 | 1025.7 | |
| 20260905043016 | 48 | 0.0 | 0.0 | 0.00 | 0.02 | 0.00 | 93 | 1025.6 | |
| 20260905042016 | 48 | 0.0 | 0.0 | 0.00 | 0.02 | 0.00 | 93 | 1025.6 | |
| 20260905041016 | 49 | 0.0 | 0.0 | 0.00 | 0.02 | 0.00 | 93 | 1025.6 | |
| 20260905040017 | 49 | 0.0 | 0.0 | 0.00 | 0.02 | 0.00 | 93 | 1025.4 | |
| 20260905035037 | 49 | 0.0 | 0.0 | 0.00 | 0.02 | 0.00 | 93 | 1025.4 | |
| 20260905034037 | 49 | 0.0 | 0.0 | 0.00 | 0.02 | 0.00 | 93 | 1025.2 | |
| 20260905033016 | 50 | 0.0 | 0.0 | 0.00 | 0.02 | 0.00 | 93 | 1025.2 | |
| 20260905032016 | 50 | 0.0 | 0.0 | 0.00 | 0.02 | 0.00 | 93 | 1025.1 | |
| 20260905031016 | 50 | 0.0 | 0.0 | 0.00 | 0.02 | 0.00 | 93 | 1025.1 | |
| 20260905030016 | 50 | 0.0 | 0.0 | 0.00 | 0.02 | 0.00 | 93 | 1024.9 | |
| 20260905025016 | 50 | 0.0 | 0.0 | 0.00 | 0.02 | 0.00 | 93 | 1025.0 | |
| 20260905024017 | 51 | 0.0 | 0.0 | 0.00 | 0.02 | 0.00 | 93 | 1024.9 | |
| 20260905023017 | 51 | 0.0 | 0.0 | 0.00 | 0.02 | 0.00 | 93 | 1024.8 | |
| 20260905022057 | 51 | 0.0 | 0.0 | 0.00 | 0.02 | 0.00 | 92 | 1024.8 | |
| 20260905021017 | 51 | 0.0 | 0.0 | 0.00 | 0.02 | 0.00 | 92 | 1024.8 | |
| 20260905020017 | 51 | 0.0 | 0.0 | 0.00 | 0.02 | 0.00 | 92 | 1024.7 | |
| 20260905015016 | 51 | 0.0 | 0.0 | 0.00 | 0.02 | 0.00 | 92 | 1024.6 | |
| 20260905014056 | 51 | 0.0 | 0.0 | 0.00 | 0.02 | 0.00 | 91 | 1024.6 | |
| 20260905013057 | 51 | 0.0 | 0.0 | 0.00 | 0.02 | 0.00 | 91 | 1024.6 | |
| 20260905012016 | 52 | 0.0 | 0.0 | 0.00 | 0.02 | 0.00 | 91 | 1024.4 | |
| 20260905011016 | 52 | 0.0 | 0.0 | 0.00 | 0.02 | 0.00 | 91 | 1024.4 | |
| 20260905010016 | 52 | 0.0 | 0.0 | 0.00 | 0.02 | 0.00 | 91 | 1024.4 | |
| 20260905005017 | 53 | 0.0 | 0.0 | 0.00 | 0.02 | 0.00 | 91 | 1024.4 | |
| 20260905004036 | 53 | 0.0 | 0.0 | 0.00 | 0.02 | 0.00 | 91 | 1024.4 | |
| 20260905003018 | 53 | 0.0 | 1.0 | 0.00 | 0.02 | 0.00 | 90 | 1024.3 | |
| 20260905002017 | 54 | 0.0 | 1.0 | 0.00 | 0.02 | 0.00 | 90 | 1024.3 | |
| 20260905001017 | 54 | 0.0 | 0.0 | 0.00 | 0.02 | 0.00 | 89 | 1024.2 | |
| 20260905000016 | 54 | 0.0 | 1.0 | 0.00 | 0.02 | 0.00 | 89 | 1024.1 | |
| 20260904235016 | 55 | 0.0 | 1.0 | 0.00 | 0.02 | 0.00 | 89 | 1024.1 | |
| 20260904234017 | 55 | 0.0 | 1.0 | 0.00 | 0.02 | 0.00 | 90 | 1024.0 | |
| 20260904233016 | 55 | 225 | 1.0 | 2.0 | 0.00 | 0.02 | 0.00 | 89 | 1023.9 |
| 20260904232017 | 55 | 0.0 | 2.0 | 0.00 | 0.02 | 0.00 | 89 | 1023.9 | |
| 20260904231017 | 55 | 225 | 1.0 | 2.0 | 0.00 | 0.02 | 0.00 | 89 | 1023.8 |
| 20260904230016 | 55 | 0.0 | 2.0 | 0.00 | 0.02 | 0.02 | 89 | 1023.7 | |
| 20260904225018 | 55 | 0.0 | 2.0 | 0.00 | 0.02 | 0.02 | 89 | 1023.6 | |
| 20260904224036 | 55 | 225 | 1.0 | 3.0 | 0.00 | 0.02 | 0.02 | 88 | 1023.6 |
| 20260904223017 | 56 | 0.0 | 1.0 | 0.00 | 0.02 | 0.02 | 86 | 1023.6 | |
| 20260904222016 | 56 | 0.0 | 0.0 | 0.00 | 0.02 | 0.02 | 85 | 1023.6 | |
| 20260904221017 | 57 | 0.0 | 0.0 | 0.00 | 0.02 | 0.02 | 85 | 1023.6 | |
| 20260904220017 | 57 | 248 | 1.0 | 2.0 | 0.00 | 0.02 | 0.02 | 85 | 1023.5 |
| 20260904215057 | 58 | 0.0 | 1.0 | 0.00 | 0.02 | 0.02 | 85 | 1023.5 | |
| 20260904214018 | 58 | 0.0 | 1.0 | 0.00 | 0.02 | 0.02 | 84 | 1023.4 | |
| 20260904213018 | 58 | 0.0 | 1.0 | 0.00 | 0.02 | 0.02 | 84 | 1023.3 | |
| 20260904212036 | 59 | 248 | 1.0 | 2.0 | 0.00 | 0.02 | 0.02 | 83 | 1023.3 |
| 20260904211016 | 59 | 0.0 | 1.0 | 0.00 | 0.02 | 0.02 | 82 | 1023.3 | |
| 20260904210017 | 59 | 248 | 1.0 | 2.0 | 0.00 | 0.02 | 0.02 | 81 | 1023.2 |
| 20260904205017 | 60 | 248 | 1.0 | 2.0 | 0.00 | 0.02 | 0.02 | 80 | 1023.1 |
| 20260904204019 | 60 | 0.0 | 1.0 | 0.00 | 0.02 | 0.02 | 79 | 1023.1 | |
| 20260904203017 | 61 | 0.0 | 1.0 | 0.00 | 0.02 | 0.02 | 77 | 1023.1 | |
| 20260904202017 | 61 | 0.0 | 2.0 | 0.00 | 0.02 | 0.02 | 76 | 1023.0 | |
| 20260904201017 | 62 | 315 | 1.0 | 4.0 | 0.00 | 0.02 | 0.02 | 75 | 1023.0 |
| 20260904200017 | 62 | 45 | 1.0 | 3.0 | 0.00 | 0.02 | 0.02 | 74 | 1022.9 |
| 20260904195018 | 62 | 45 | 1.0 | 3.0 | 0.00 | 0.02 | 0.02 | 74 | 1022.7 |
| 20260904194017 | 63 | 248 | 1.0 | 4.0 | 0.00 | 0.02 | 0.02 | 73 | 1022.4 |
| 20260904193017 | 63 | 0.0 | 3.0 | 0.00 | 0.02 | 0.02 | 72 | 1022.2 | |
| 20260904192020 | 63 | 0.0 | 2.0 | 0.00 | 0.02 | 0.02 | 71 | 1022.0 | |
| 20260904191018 | 63 | 23 | 1.0 | 3.0 | 0.00 | 0.02 | 0.02 | 70 | 1021.9 |
| 20260904190017 | 64 | 270 | 1.0 | 4.0 | 0.00 | 0.02 | 0.02 | 70 | 1021.8 |
| 20260904185016 | 64 | 0.0 | 2.0 | 0.00 | 0.02 | 0.02 | 69 | 1021.6 | |
| 20260904184017 | 64 | 225 | 1.0 | 3.0 | 0.00 | 0.02 | 0.02 | 69 | 1021.2 |
| 20260904183017 | 64 | 203 | 1.0 | 5.0 | 0.00 | 0.02 | 0.02 | 68 | 1021.0 |
| 20260904182017 | 64 | 225 | 1.0 | 3.0 | 0.00 | 0.02 | 0.02 | 68 | 1021.1 |
| 20260904181018 | 64 | 203 | 2.0 | 4.0 | 0.00 | 0.02 | 0.02 | 68 | 1020.9 |
| 20260904180017 | 65 | 0.0 | 2.0 | 0.00 | 0.02 | 0.02 | 69 | 1021.1 | |
| 20260904175017 | 65 | 225 | 1.0 | 3.0 | 0.00 | 0.02 | 0.02 | 68 | 1020.9 |
| 20260904174017 | 65 | 203 | 2.0 | 4.0 | 0.00 | 0.02 | 0.02 | 67 | 1020.7 |
| 20260904173017 | 65 | 225 | 1.0 | 4.0 | 0.00 | 0.02 | 0.02 | 66 | 1020.8 |
| 20260904172057 | 65 | 180 | 1.0 | 4.0 | 0.00 | 0.02 | 0.02 | 65 | 1020.7 |
| 20260904171016 | 66 | 225 | 1.0 | 4.0 | 0.00 | 0.02 | 0.02 | 64 | 1020.7 |
| 20260904170017 | 66 | 203 | 2.0 | 4.0 | 0.00 | 0.02 | 0.02 | 64 | 1020.6 |
| 20260904165039 | 66 | 225 | 1.0 | 5.0 | 0.00 | 0.02 | 0.02 | 63 | 1020.6 |
| 20260904164017 | 66 | 203 | 2.0 | 5.0 | 0.00 | 0.02 | 0.02 | 62 | 1020.5 |
| 20260904163018 | 66 | 203 | 1.0 | 3.0 | 0.00 | 0.02 | 0.02 | 60 | 1020.6 |
| 20260904162018 | 67 | 270 | 2.0 | 5.0 | 0.00 | 0.02 | 0.02 | 59 | 1020.4 |
| 20260904161037 | 67 | 225 | 3.0 | 10.0 | 0.00 | 0.02 | 0.02 | 59 | 1020.1 |
| 20260904160037 | 67 | 203 | 3.0 | 6.0 | 0.00 | 0.02 | 0.02 | 57 | 1020.0 |
| 20260904155017 | 67 | 225 | 3.0 | 7.0 | 0.00 | 0.02 | 0.02 | 58 | 1020.0 |
| 20260904154018 | 68 | 225 | 2.0 | 7.0 | 0.00 | 0.02 | 0.02 | 58 | 1020.0 |
| 20260904153017 | 68 | 23 | 2.0 | 7.0 | 0.00 | 0.02 | 0.02 | 62 | 1020.0 |
| 20260904152017 | 68 | 68 | 2.0 | 4.0 | 0.00 | 0.02 | 0.02 | 65 | 1020.1 |
| 20260904151017 | 68 | 270 | 2.0 | 6.0 | 0.00 | 0.02 | 0.02 | 65 | 1019.8 |
| 20260904150017 | 68 | 45 | 2.0 | 5.0 | 0.00 | 0.02 | 0.02 | 67 | 1020.0 |
| 20260904145016 | 68 | 225 | 3.0 | 7.0 | 0.00 | 0.02 | 0.02 | 65 | 1019.4 |
| 20260904144016 | 69 | 248 | 3.0 | 7.0 | 0.00 | 0.02 | 0.02 | 63 | 1019.5 |
| 20260904143057 | 70 | 0 | 2.0 | 7.0 | 0.00 | 0.02 | 0.02 | 61 | 1019.7 |
| 20260904142017 | 70 | 0 | 2.0 | 6.0 | 0.00 | 0.02 | 0.02 | 62 | 1019.6 |
| 20260904141018 | 71 | 68 | 2.0 | 7.0 | 0.00 | 0.02 | 0.02 | 63 | 1019.5 |
| 20260904140018 | 71 | 203 | 1.0 | 4.0 | 0.00 | 0.02 | 0.02 | 64 | 1019.4 |